Weather History for Wilmington, OH

Change the Weather History Date:

Wednesday, August 7, 2013

  Actual Average (KDAY) Record (KDAY)
Temperature  
Mean Temperature 75 °F 73 °F  
Max Temperature 84 °F 83 °F 97 °F (1918)
Min Temperature 66 °F 64 °F 52 °F (1994)
Degree Days  
Heating Degree Days 0 0  
Month to date heating degree days 0  
Since 1 June heating degree days 22  
Since 1 July heating degree days 0  
Cooling Degree Days 10 8  
Month to date cooling degree days 62  
Year to date cooling degree days 601  
Since 1 June cooling degree days 531  
Growing Degree Days 25 (Base 50)    
Moisture  
Dew Point 70 °F    
Average Humidity 85    
Maximum Humidity 97    
Minimum Humidity 66    
Precipitation  
Precipitation 0.00 in 0.09 in 2.89 in (1937)
Month to date precipitation 0.68  
Year to date precipitation 26.00  
Snow  
Snow 0.00 in 0.00 in - ()
Month to date snowfall 0.0  
Since 1 June snowfall 0.0  
Since 1 July snowfall 0.0  
Snow Depth -    
Sea Level Pressure  
Sea Level Pressure 29.93 in    
Wind  
Wind Speed 5 mph (SSW)    
Max Wind Speed 13 mph    
Max Gust Speed -    
Visibility 7 miles    
Events      
T = Trace of Precipitation, MM = Missing Value Source: NWS Daily Summary

Daily Weather History Graph

Daily Weather History Graph

Search for Another Location

Airport:

Trip Planner

Search our weather history database for the weather conditions in past years. The results will help you decide how hot, cold, wet, or windy it might be!

Date:

Astronomy

Aug. 07, 2013 Rise Set
Actual Time 6:40 AM EDT 8:40 PM EDT
Civil Twilight 6:11 AM EDT 9:09 PM EDT
Nautical Twilight 5:35 AM EDT 9:45 PM EDT
Astronomical Twilight 4:56 AM EDT 10:24 PM EDT
Moon 7:27 AM EDT (8/7) 8:48 PM EDT (8/7)
Length of Visible Light 14h 58m
Length of Day
13h 59m
New Moon, 1% of the Moon is Illuminated
Aug 7
New Moon
Aug 14
First Quarter
Aug 20
Full
Aug 28
Last Quarter
Sep 5
New

Hourly Weather History & Observations

Time (EDT) Temp. Heat Index Dew Point Humidity Pressure Visibility Wind Dir Wind Speed Gust Speed Precip Events Conditions
12:54 AM 68.0 °F - 64.9 °F 90% 29.93 in 9.0 mi SSE 3.5 mph - N/A   Clear
1:54 AM 66.9 °F - 64.9 °F 93% 29.94 in 7.0 mi SSE 3.5 mph - N/A   Partly Cloudy
2:54 AM 68.0 °F - 66.0 °F 93% 29.94 in 8.0 mi Calm Calm - N/A   Overcast
3:28 AM 71.6 °F - 66.2 °F 83% 29.96 in 8.0 mi Calm Calm - N/A   Overcast
3:54 AM 68.0 °F - 66.0 °F 93% 29.94 in 8.0 mi South 3.5 mph - N/A   Mostly Cloudy
4:54 AM 66.9 °F - 66.0 °F 97% 29.93 in 7.0 mi South 4.6 mph - N/A   Clear
5:54 AM 68.0 °F - 66.0 °F 93% 29.92 in 6.0 mi Calm Calm - N/A   Scattered Clouds
6:54 AM 69.1 °F - 66.9 °F 93% 29.92 in 6.0 mi Calm Calm - N/A   Mostly Cloudy
7:18 AM 69.8 °F - 68.0 °F 94% 29.95 in 5.0 mi SSW 3.5 mph - N/A   Mostly Cloudy
7:39 AM 69.8 °F - 68.0 °F 94% 29.95 in 5.0 mi SSW 4.6 mph - N/A   Overcast
7:54 AM 70.0 °F - 68.0 °F 93% 29.91 in 5.0 mi South 4.6 mph - N/A   Overcast
8:04 AM 71.6 °F - 69.8 °F 94% 29.94 in 5.0 mi SSW 4.6 mph - N/A   Overcast
8:33 AM 71.6 °F - 69.8 °F 94% 29.96 in 2.5 mi South 5.8 mph - N/A   Overcast
8:54 AM 72.0 °F - 70.0 °F 93% 29.94 in 3.0 mi SSW 5.8 mph - N/A   Overcast
9:04 AM 71.6 °F - 69.8 °F 94% 29.96 in 2.5 mi SSW 4.6 mph - N/A   Overcast
9:24 AM 73.4 °F - 71.6 °F 94% 29.96 in 3.0 mi South 4.6 mph - N/A   Overcast
9:54 AM 75.9 °F - 72.0 °F 87% 29.94 in 4.0 mi SW 8.1 mph - N/A   Overcast
10:24 AM 78.8 °F - 71.6 °F 78% 29.97 in 4.0 mi South 9.2 mph - N/A   Haze
10:38 AM 78.8 °F - 71.6 °F 78% 29.97 in 5.0 mi SSW 11.5 mph - N/A   Haze
10:54 AM 77.0 °F - 72.0 °F 84% 29.95 in 4.0 mi SW 10.4 mph - N/A   Haze
11:54 AM 79.0 °F - 72.0 °F 79% 29.94 in 4.0 mi SSW 6.9 mph - N/A   Haze
12:54 PM 80.1 °F 83.6 °F 71.1 °F 74% 29.93 in 5.0 mi SSW 11.5 mph - N/A   Haze
1:54 PM 80.1 °F 83.2 °F 70.0 °F 71% 29.93 in 6.0 mi SW 9.2 mph - N/A   Haze
2:54 PM 81.0 °F 84.9 °F 71.1 °F 72% 29.91 in 8.0 mi SSW 9.2 mph - N/A   Mostly Cloudy
3:54 PM 82.9 °F 87.5 °F 71.1 °F 67% 29.90 in 9.0 mi SW 10.4 mph - N/A   Scattered Clouds
4:12 PM 82.4 °F 86.3 °F 69.8 °F 66% 29.92 in 9.0 mi WSW 8.1 mph - N/A   Mostly Cloudy
4:19 PM 84.2 °F 89.6 °F 71.6 °F 66% 29.91 in 10.0 mi SSW 12.7 mph - N/A   Scattered Clouds
4:54 PM 82.0 °F 85.9 °F 70.0 °F 67% 29.88 in 10.0 mi WSW 10.4 mph - N/A   Clear
5:54 PM 82.9 °F 87.5 °F 71.1 °F 67% 29.88 in 10.0 mi SSW 5.8 mph - N/A   Mostly Cloudy
6:54 PM 81.0 °F 85.2 °F 72.0 °F 74% 29.88 in 10.0 mi SSW 6.9 mph - N/A   Partly Cloudy
7:54 PM 79.0 °F - 71.1 °F 77% 29.89 in 10.0 mi South 5.8 mph - N/A   Partly Cloudy
8:54 PM 75.0 °F - 71.1 °F 87% 29.89 in 10.0 mi Calm Calm - N/A   Clear
9:54 PM 73.9 °F - 71.1 °F 91% 29.91 in 10.0 mi SSE 3.5 mph - N/A   Clear
10:54 PM 72.0 °F - 70.0 °F 93% 29.93 in 8.0 mi Calm Calm - N/A   Clear
11:54 PM 72.0 °F - 71.1 °F 97% 29.92 in 5.0 mi Calm Calm - N/A   Clear